N5TM-4 Weather Reports


Display with metric or nautical units.
time (UTC)temp
F
wind
direction
speed
MPH
gust
MPH
rain 1hr
in
rain 24hr
in
rain mn
in
humidity
%
barometer
mb
20260510133545 75 74 1.0 6.0 0.00 1.69 0.00 90 1014.3
20260510133100 75 67 2.0 6.0 0.00 1.69 0.00 91 1014.3
20260510132544 75 69 1.0 5.0 0.00 1.69 0.00 92 1014.2
20260510132044 74 62 1.0 4.0 0.00 1.69 0.00 92 1014.1
20260510131550 74 78 0.0 4.0 0.00 1.69 0.00 92 1014.1
20260510131041 74 84 0.0 4.0 0.00 1.69 0.00 92 1013.9
20260510130540 74 87 1.0 4.0 0.00 1.69 0.00 92 1013.9
20260510130038 74 56 0.0 3.0 0.00 1.69 0.00 93 1013.7
20260510125538 74 56 1.0 4.0 0.00 1.69 0.00 93 1013.6
20260510125036 74 60 1.0 4.0 0.00 1.69 0.00 93 1013.5
20260510124540 73 180 1.0 3.0 0.00 1.69 0.00 93 1013.4
20260510124036 73 180 0.0 2.0 0.00 1.69 0.00 93 1013.4
20260510123534 73 180 0.0 2.0 0.00 1.69 0.00 93 1013.2
20260510123037 73 180 0.0 2.0 0.00 1.69 0.00 93 1013.0
20260510122533 73 180 0.0 2.0 0.00 1.69 0.00 93 1013.0
20260510122029 73 180 0.0 2.0 0.00 1.69 0.00 92 1012.9
20260510121528 73 180 0.0 2.0 0.00 1.69 0.00 92 1012.8
20260510121029 73 180 0.0 2.0 0.00 1.69 0.00 92 1012.6
20260510120525 73 180 0.0 4.0 0.00 1.69 0.00 92 1012.4
20260510120027 73 180 1.0 4.0 0.00 1.69 0.00 92 1012.3
20260510115522 73 180 1.0 3.0 0.00 1.69 0.00 93 1012.2
20260510115020 73 180 0.0 5.0 0.00 1.69 0.00 93 1012.1
20260510114523 73 180 1.0 5.0 0.00 1.69 0.00 93 1012.1
20260510114018 73 181 1.0 3.0 0.00 1.69 0.00 93 1012.0
20260510113515 73 181 1.0 5.0 0.00 1.69 0.00 93 1011.9
20260510113016 73 181 2.0 5.0 0.00 1.69 0.00 93 1011.8
20260510112513 73 181 1.0 4.0 0.00 1.69 0.00 93 1011.7
20260510112011 73 181 1.0 6.0 0.00 1.69 0.00 93 1011.6
20260510111512 73 181 1.0 6.0 0.00 1.69 0.00 93 1011.5
20260510111011 73 180 1.0 5.0 0.00 1.69 0.00 93 1011.4
20260510110513 73 165 2.0 5.0 0.00 1.69 0.00 93 1011.4
20260510110011 73 200 1.0 3.0 0.00 1.69 0.00 93 1011.4
20260510105513 73 200 1.0 4.0 0.00 1.69 0.00 93 1011.3
20260510105010 72 200 1.0 4.0 0.00 1.69 0.00 93 1011.3
20260510104510 73 200 1.0 3.0 0.00 1.69 0.00 93 1011.2
20260510104009 73 200 0.0 3.0 0.00 1.69 0.00 93 1011.2
20260510103510 73 189 1.0 5.0 0.00 1.69 0.00 93 1011.2
20260510103010 73 191 3.0 6.0 0.00 1.69 0.00 93 1011.3
20260510102510 73 193 0.0 6.0 0.00 1.69 0.00 93 1011.2
20260510102011 73 184 1.0 3.0 0.00 1.69 0.00 93 1011.2
20260510101509 73 186 0.0 3.0 0.00 1.69 0.00 93 1011.2
20260510101009 73 186 0.0 4.0 0.00 1.69 0.00 93 1011.1
20260510100512 73 186 1.0 4.0 0.00 1.69 0.00 93 1011.0
20260510100010 73 186 1.0 4.0 0.00 1.69 0.00 93 1011.0
20260510095509 73 186 1.0 5.0 0.00 1.69 0.00 93 1011.0
20260510095009 73 164 2.0 5.0 0.00 1.69 0.00 93 1011.0
20260510094510 73 154 1.0 6.0 0.00 1.69 0.00 93 1010.9
20260510094008 73 175 3.0 6.0 0.00 1.69 0.00 93 1010.9
20260510093508 73 184 4.0 6.0 0.00 1.69 0.00 93 1010.8
20260510093007 73 160 3.0 9.0 0.00 1.69 0.00 93 1010.8
20260510092507 73 184 3.0 7.0 0.00 1.69 0.00 93 1010.9
20260510092007 73 159 3.0 7.0 0.00 1.69 0.00 93 1010.9
20260510091510 72 171 3.0 8.0 0.00 1.69 0.00 93 1010.9
20260510091006 72 177 3.0 8.0 0.00 1.69 0.00 93 1010.9
20260510090508 72 163 2.0 8.0 0.00 1.69 0.00 93 1011.1
20260510090006 72 173 4.0 8.0 0.00 1.69 0.00 93 1011.1
20260510085504 72 167 2.0 7.0 0.00 1.69 0.00 93 1011.1
20260510085004 72 170 2.0 5.0 0.00 1.69 0.00 93 1011.1
20260510084504 72 167 1.0 4.0 0.00 1.69 0.00 92 1011.2
20260510084004 72 167 2.0 4.0 0.00 1.69 0.00 92 1011.2
20260510083504 72 167 2.0 4.0 0.00 1.69 0.00 92 1011.2
20260510083003 72 167 0.0 1.0 0.00 1.69 0.00 91 1011.2
20260510082502 72 167 0.0 2.0 0.00 1.69 0.00 91 1011.2
20260510082002 72 167 1.0 3.0 0.00 1.69 0.00 91 1011.2
20260510081502 72 167 0.0 1.0 0.00 1.69 0.00 91 1011.2
20260510081001 73 167 0.0 0.0 0.00 1.69 0.00 91 1011.1
20260510080501 73 167 0.0 2.0 0.00 1.69 0.00 91 1011.1
20260510080100 73 167 0.0 2.0 0.00 1.69 0.00 91 1011.1
20260510075600 73 167 0.0 3.0 0.00 1.69 0.00 92 1011.1
20260510075100 73 167 2.0 6.0 0.00 1.69 0.00 92 1011.0
20260510074559 73 167 2.0 6.0 0.00 1.69 0.00 92 1011.0
20260510074056 73 168 2.0 5.0 0.00 1.69 0.00 92 1011.1
20260510073556 73 169 2.0 6.0 0.00 1.69 0.00 92 1011.0
20260510073111 73 163 2.0 6.0 0.00 1.69 0.00 92 1011.1
20260510072553 73 175 2.0 6.0 0.00 1.69 0.00 92 1011.1
20260510072050 73 178 2.0 6.0 0.00 1.69 0.00 92 1011.1
20260510071558 73 157 2.0 6.0 0.00 1.69 0.00 92 1011.2
20260510071048 73 158 1.0 5.0 0.00 1.69 0.00 91 1011.1
20260510070547 73 158 2.0 7.0 0.00 1.69 0.00 91 1011.1
20260510070046 73 158 2.0 7.0 0.00 1.69 0.00 91 1011.1
20260510065548 73 159 2.0 5.0 0.00 1.69 0.00 91 1011.1
20260510065044 73 159 1.0 5.0 0.00 1.69 0.00 90 1011.1
20260510064553 73 159 2.0 7.0 0.00 1.69 0.00 90 1011.1
20260510064043 73 159 3.0 7.0 0.00 1.69 0.00 90 1011.0
20260510063543 73 153 3.0 6.0 0.00 1.69 0.00 90 1011.0
20260510063046 73 159 1.0 7.0 0.00 1.69 0.00 90 1011.1
20260510062542 73 149 4.0 8.0 0.00 1.69 0.00 90 1011.1
20260510062044 73 173 2.0 6.0 0.00 1.69 0.00 90 1011.1
20260510061539 73 155 2.0 7.0 0.00 1.69 0.00 90 1011.2
20260510061039 73 167 4.0 6.0 0.00 1.69 0.00 91 1011.3
20260510060537 73 178 3.0 7.0 0.00 1.69 0.00 91 1011.3
20260510060034 73 163 3.0 7.0 0.00 1.69 0.00 91 1011.4
20260510055532 73 163 2.0 5.0 0.00 1.69 0.00 91 1011.4
20260510055034 73 161 2.0 5.0 0.00 1.69 0.00 90 1011.5
20260510054631 73 161 1.0 5.0 0.00 1.69 0.00 90 1011.5
20260510054030 73 157 1.0 5.0 0.00 1.69 0.00 90 1011.5
20260510053530 73 157 0.0 3.0 0.00 1.69 0.00 90 1011.4
20260510053035 73 157 1.0 3.0 0.00 1.69 0.00 90 1011.5
20260510052533 73 159 0.0 2.0 0.00 1.69 0.00 89 1011.4
20260510052030 73 159 1.0 5.0 0.00 1.69 0.00 89 1011.6
20260510051531 73 159 1.0 5.0 0.00 1.69 0.00 89 1011.5
20260510051028 73 137 1.0 6.0 0.00 1.69 0.00 90 1011.5
20260510050533 73 137 2.0 6.0 0.00 1.69 0.00 90 1011.5
20260510050027 73 156 2.0 6.0 0.00 1.69 0.00 90 1011.4
20260510045527 73 163 2.0 5.0 0.00 1.69 1.69 90 1011.5
20260510045030 73 155 1.0 5.0 0.00 1.69 1.69 89 1011.4
20260510044530 73 155 1.0 5.0 0.00 1.69 1.69 89 1011.4
20260510044025 72 155 1.0 3.0 0.00 1.69 1.69 88 1011.6
20260510043526 73 155 0.0 2.0 0.00 1.69 1.69 87 1011.8
20260510043026 73 155 0.0 2.0 0.00 1.69 1.69 87 1011.9
20260510042525 73 155 0.0 3.0 0.00 1.69 1.69 87 1011.9
20260510042025 73 155 0.0 3.0 0.00 1.69 1.69 86 1011.8
20260510041525 73 155 0.0 1.0 0.00 1.69 1.69 85 1011.7
20260510041028 73 155 0.0 5.0 0.00 1.69 1.69 85 1011.7
20260510040525 73 155 0.0 5.0 0.00 1.69 1.69 85 1011.6
20260510040030 73 155 2.0 4.0 0.00 1.69 1.69 85 1011.5
20260510035525 73 157 2.0 5.0 0.00 1.69 1.69 84 1011.6
20260510035025 73 157 2.0 5.0 0.00 1.69 1.69 84 1011.6
20260510034532 73 145 2.0 7.0 0.00 1.69 1.69 85 1011.6
20260510034024 73 132 3.0 7.0 0.00 1.69 1.69 84 1011.7
20260510033523 72 125 2.0 4.0 0.00 1.69 1.69 85 1011.8
20260510033024 72 121 1.0 4.0 0.00 1.69 1.69 86 1011.8
20260510032527 72 121 2.0 4.0 0.00 1.69 1.69 86 1011.8
20260510032023 72 121 1.0 4.0 0.00 1.69 1.69 86 1012.0
20260510031523 71 98 2.0 7.0 0.00 1.69 1.69 87 1011.9
20260510031021 71 125 2.0 7.0 0.00 1.69 1.69 88 1011.7
20260510030520 70 110 2.0 6.0 0.00 1.69 1.69 89 1011.5
20260510030019 70 82 1.0 4.0 0.00 1.69 1.69 89 1011.4
20260510025520 69 108 0.0 4.0 0.00 1.69 1.69 89 1011.3
20260510025019 69 84 0.0 4.0 0.00 1.69 1.69 89 1011.0
20260510024519 69 98 0.0 2.0 0.00 1.69 1.69 89 1010.8
20260510024018 69 98 0.0 3.0 0.00 1.69 1.69 89 1010.8
20260510023518 69 98 1.0 3.0 0.00 1.69 1.69 88 1010.7
20260510023018 69 98 0.0 2.0 0.00 1.69 1.69 88 1010.5
20260510022518 69 98 0.0 1.0 0.00 1.69 1.69 88 1010.3
20260510022017 69 98 0.0 3.0 0.00 1.69 1.69 88 1010.3
20260510021531 69 98 0.0 6.0 0.00 1.69 1.69 89 1010.2
20260510021020 69 98 1.0 6.0 0.00 1.69 1.69 89 1010.0
20260510020517 70 103 1.0 6.0 0.00 1.69 1.69 89 1010.0
20260510020018 70 105 2.0 7.0 0.00 1.69 1.69 90 1009.9
20260510015517 70 111 2.0 8.0 0.00 1.69 1.69 90 1009.6
20260510015022 70 134 3.0 8.0 0.00 1.69 1.69 91 1009.3
20260510014517 70 153 0.0 0.0 0.00 1.69 1.69 90 1009.0
20260510014018 70 153 0.0 0.0 0.00 1.69 1.69 90 1009.0
20260510013516 69 153 0.0 0.0 0.00 1.69 1.69 90 1009.0
20260510013016 69 153 0.0 1.0 0.00 1.69 1.69 89 1009.0
20260510012516 70 153 0.0 1.0 0.00 1.69 1.69 89 1008.9
20260510012015 69 153 0.0 3.0 0.00 1.69 1.69 89 1009.0
20260510011516 69 153 0.0 3.0 0.00 1.69 1.69 89 1009.1
20260510011015 69 153 0.0 2.0 0.01 1.69 1.69 89 1009.0
20260510010515 69 153 0.0 1.0 0.06 1.69 1.69 88 1008.6
20260510010015 69 153 0.0 1.0 0.18 1.69 1.69 88 1008.7
20260510005515 69 153 0.0 1.0 0.62 1.69 1.69 88 1008.8
20260510005014 69 153 0.0 2.0 1.12 1.69 1.69 88 1008.5
20260510004517 69 153 0.0 2.0 1.43 1.69 1.69 87 1008.7
20260510004014 69 153 1.0 4.0 1.46 1.69 1.69 86 1008.6
20260510003514 69 153 0.0 4.0 1.51 1.69 1.69 86 1008.6
20260510003014 69 272 0.0 4.0 1.64 1.69 1.69 86 1008.6
20260510002514 69 222 0.0 6.0 1.68 1.69 1.69 85 1008.6
20260510002013 69 172 4.0 6.0 1.68 1.69 1.69 83 1008.5
20260510001513 69 178 2.0 9.0 1.68 1.69 1.69 82 1008.7
20260510001015 69 109 5.0 10.0 1.66 1.67 1.67 81 1009.0
20260510000514 69 150 5.0 19.0 1.61 1.62 1.62 78 1009.0
20260510000017 70 167 9.0 19.0 1.49 1.49 1.49 73 1009.4
20260509235510 71 169 3.0 14.0 0.95 0.95 0.95 77 1011.4
20260509235009 74 92 3.0 14.0 0.49 0.49 0.49 77 1010.2
20260509234508 77 183 2.0 8.0 0.25 0.25 0.25 76 1009.2
20260509234007 79 186 0.0 7.0 0.23 0.23 0.23 77 1008.8
20260509233506 80 293 2.0 8.0 0.16 0.16 0.16 78 1008.6
20260509233006 81 237 4.0 8.0 0.04 0.04 0.04 76 1008.1
20260509232506 82 188 1.0 4.0 0.01 0.01 0.01 75 1008.1
20260509232007 83 188 1.0 7.0 0.01 0.01 0.01 74 1008.2
20260509231506 83 174 1.0 7.0 0.01 0.01 0.01 74 1008.0
20260509231005 84 175 3.0 6.0 0.01 0.01 0.01 72 1008.2
20260509230505 86 164 2.0 5.0 0.01 0.01 0.01 71 1008.1
20260509230006 87 159 2.0 5.0 0.00 0.00 0.00 66 1008.0
20260509225506 88 157 2.0 5.0 0.00 0.00 0.00 62 1007.9
20260509225005 88 113 1.0 3.0 0.00 0.00 0.00 59 1007.7
20260509224505 88 113 0.0 3.0 0.00 0.00 0.00 59 1007.7
20260509224006 88 113 1.0 3.0 0.00 0.00 0.00 59 1007.8
20260509223505 88 113 0.0 3.0 0.00 0.00 0.00 59 1007.8
20260509223004 88 113 1.0 4.0 0.00 0.00 0.00 60 1007.8
20260509222504 88 130 1.0 6.0 0.00 0.00 0.00 60 1007.7
20260509222006 88 108 2.0 6.0 0.00 0.00 0.00 58 1007.7
20260509221504 89 113 2.0 5.0 0.00 0.00 0.00 58 1007.6
20260509221004 89 126 1.0 6.0 0.00 0.00 0.00 59 1007.7
20260509220503 88 130 2.0 6.0 0.00 0.00 0.00 60 1007.7
20260509220003 88 123 3.0 6.0 0.00 0.00 0.00 60 1007.6
20260509215503 88 109 3.0 6.0 0.00 0.00 0.00 59 1007.7
20260509215003 88 128 2.0 6.0 0.00 0.00 0.00 58 1007.6
20260509214502 89 125 2.0 6.0 0.00 0.00 0.00 58 1007.7
20260509214003 89 137 2.0 4.0 0.00 0.00 0.00 58 1007.6
20260509213501 90 134 2.0 5.0 0.00 0.00 0.00 57 1007.6
20260509213002 91 25 1.0 5.0 0.00 0.00 0.00 55 1007.6
20260509212500 92 355 2.0 6.0 0.00 0.00 0.00 55 1007.7
20260509212100 92 355 2.0 6.0 0.00 0.00 0.00 55 1007.7
20260509211601 91 265 1.0 3.0 0.00 0.00 0.00 55 1007.7
20260509211104 91 264 1.0 3.0 0.00 0.00 0.00 57 1007.7
20260509210600 91 263 0.0 3.0 0.00 0.00 0.00 55 1007.8
20260509210115 92 298 1.0 5.0 0.00 0.00 0.00 56 1007.9
20260509205557 92 299 1.0 5.0 0.00 0.00 0.00 55 1008.0
20260509205057 92 311 1.0 8.0 0.00 0.00 0.00 54 1008.1
20260509204559 92 313 3.0 8.0 0.00 0.00 0.00 54 1008.2
20260509204056 92 327 1.0 6.0 0.00 0.00 0.00 52 1008.3
20260509203555 93 305 2.0 6.0 0.00 0.00 0.00 53 1008.3
20260509203055 93 11 2.0 6.0 0.00 0.00 0.00 52 1008.3
20260509202554 93 302 3.0 5.0 0.00 0.00 0.00 52 1008.3
20260509202054 93 278 0.0 3.0 0.00 0.00 0.00 52 1008.4
20260509201600 93 245 0.0 3.0 0.00 0.00 0.00 51 1008.4
20260509201052 94 254 0.0 3.0 0.00 0.00 0.00 50 1008.6
20260509200551 93 330 0.0 3.0 0.00 0.00 0.00 51 1008.6
20260509200100 93 330 0.0 6.0 0.00 0.00 0.00 52 1008.6
20260509195548 93 28 1.0 6.0 0.00 0.00 0.00 50 1008.7
20260509195048 93 267 1.0 6.0 0.00 0.00 0.00 53 1008.8
20260509194547 92 303 2.0 6.0 0.00 0.00 0.00 52 1008.8
20260509194046 93 325 1.0 4.0 0.00 0.00 0.00 52 1008.9
20260509193546 92 328 2.0 4.0 0.00 0.00 0.00 52 1008.9
20260509193046 92 342 1.0 4.0 0.00 0.00 0.00 53 1008.9
20260509192545 92 32 1.0 6.0 0.00 0.00 0.00 52 1008.9
20260509192046 92 335 1.0 6.0 0.00 0.00 0.00 52 1008.9
20260509191545 92 19 1.0 4.0 0.00 0.00 0.00 52 1008.9
20260509191046 92 329 1.0 4.0 0.00 0.00 0.00 53 1009.0
20260509190544 92 17 1.0 6.0 0.00 0.00 0.00 54 1009.0
20260509190051 93 344 3.0 6.0 0.00 0.00 0.00 52 1009.0
20260509185543 92 339 1.0 4.0 0.00 0.00 0.00 54 1009.1
20260509185042 92 331 0.0 3.0 0.00 0.00 0.00 54 1009.2
20260509184540 91 329 1.0 4.0 0.00 0.00 0.00 56 1009.2
20260509184039 92 178 1.0 5.0 0.00 0.00 0.00 55 1009.2
20260509183538 91 265 0.0 4.0 0.00 0.00 0.00 57 1009.4
20260509183039 90 170 0.0 4.0 0.00 0.00 0.00 57 1009.5
20260509182537 89 246 0.0 5.0 0.00 0.00 0.00 58 1009.6
20260509182035 88 155 0.0 5.0 0.00 0.00 0.00 61 1009.6
20260509181538 88 182 1.0 5.0 0.00 0.00 0.00 60 1009.7
20260509181035 88 188 1.0 7.0 0.00 0.00 0.00 62 1009.7
20260509180535 88 166 4.0 7.0 0.00 0.00 0.00 60 1009.8
20260509180035 89 174 0.0 7.0 0.00 0.00 0.00 59 1010.0
20260509175534 89 312 1.0 7.0 0.00 0.00 0.00 61 1010.1
20260509175033 89 227 1.0 9.0 0.00 0.00 0.00 62 1010.1
20260509174532 88 149 0.0 9.0 0.00 0.00 0.00 64 1010.2
20260509174031 87 116 2.0 8.0 0.00 0.00 0.00 66 1010.3
20260509173532 86 189 4.0 9.0 0.00 0.00 0.00 65 1010.4
20260509173028 86 187 3.0 9.0 0.00 0.00 0.00 68 1010.5
20260509172527 85 183 1.0 11.0 0.00 0.00 0.00 71 1010.4
20260509172027 84 151 6.0 11.0 0.00 0.00 0.00 70 1010.4
20260509171535 84 138 3.0 8.0 0.00 0.00 0.00 70 1010.5
20260509171026 84 173 2.0 7.0 0.00 0.00 0.00 70 1010.5
20260509170528 84 173 4.0 7.0 0.00 0.00 0.00 73 1010.8
20260509170030 84 148 1.0 6.0 0.00 0.00 0.00 73 1010.8
20260509165525 84 162 1.0 6.0 0.00 0.00 0.00 72 1010.9
20260509165026 84 159 1.0 5.0 0.00 0.00 0.00 74 1010.8
20260509164522 84 171 1.0 5.0 0.00 0.00 0.00 74 1010.8
20260509164024 83 163 1.0 5.0 0.00 0.00 0.00 77 1010.8
20260509163518 81 100 1.0 4.0 0.00 0.00 0.00 78 1010.9
20260509163017 80 15 0.0 2.0 0.00 0.00 0.00 79 1010.8
20260509162516 80 11 0.0 2.0 0.00 0.00 0.00 80 1010.8
20260509162016 80 11 0.0 2.0 0.00 0.00 0.00 81 1010.8
20260509161515 80 11 1.0 4.0 0.00 0.00 0.00 82 1010.7
20260509161013 79 355 0.0 4.0 0.00 0.00 0.00 82 1010.8
20260509160513 79 9 1.0 3.0 0.00 0.00 0.00 83 1010.8
20260509160013 79 157 0.0 3.0 0.00 0.00 0.00 83 1010.8
20260509155513 78 157 0.0 3.0 0.00 0.00 0.00 83 1010.9
20260509155011 78 157 0.0 2.0 0.00 0.00 0.00 84 1010.8
20260509154516 78 157 0.0 2.0 0.00 0.00 0.00 85 1010.8
20260509154011 78 157 0.0 2.0 0.00 0.00 0.00 85 1010.7
20260509153511 78 157 0.0 2.0 0.00 0.00 0.00 85 1010.8
20260509153009 78 157 0.0 3.0 0.00 0.00 0.00 86 1010.6
20260509152509 78 157 0.0 3.0 0.00 0.00 0.00 86 1010.6
20260509152009 78 157 0.0 2.0 0.00 0.00 0.00 87 1010.8
20260509151507 77 157 0.0 3.0 0.00 0.00 0.00 87 1010.8
20260509151006 77 157 1.0 3.0 0.00 0.00 0.00 87 1010.6
20260509150507 77 157 0.0 3.0 0.00 0.00 0.00 87 1010.6
20260509150015 77 157 0.0 3.0 0.00 0.00 0.00 88 1010.6
20260509145505 77 157 0.0 3.0 0.00 0.00 0.00 89 1010.4
20260509145004 76 157 1.0 3.0 0.00 0.00 0.00 89 1010.4
20260509144502 76 157 1.0 2.0 0.00 0.00 0.00 89 1010.4
20260509144001 76 157 0.0 2.0 0.00 0.00 0.00 90 1010.2
20260509143501 76 157 0.0 2.0 0.00 0.00 0.00 90 1010.2
20260509143001 76 157 0.0 1.0 0.00 0.00 0.00 90 1010.2
20260509142600 75 157 0.0 2.0 0.00 0.00 0.00 91 1010.1
20260509142059 75 157 0.0 2.0 0.00 0.00 0.00 92 1010.0
20260509141600 75 157 0.0 1.0 0.00 0.00 0.00 92 1009.8
20260509141100 75 157 0.0 2.0 0.00 0.00 0.00 92 1009.9
20260509140558 75 157 0.0 3.0 0.00 0.00 0.00 91 1009.8
20260509140104 75 157 1.0 5.0 0.00 0.00 0.00 91 1009.6
20260509135558 75 157 1.0 5.0 0.00 0.00 0.00 92 1009.6
20260509135057 75 157 1.0 3.0 0.00 0.00 0.00 92 1009.9
20260509134626 75 157 0.0 1.0 0.00 0.00 0.00 92 1010.0
20260509134059 75 157 0.0 1.0 0.00 0.00 0.00 92 1010.3